Flag for Ireland Weather past 2 weeks in Galway, Ireland

Now
57 °F

Sprinkles. Scattered clouds.


Feels Like: 55 °F
Forecast: 53 / 58 °F
Wind: 9 mph from Northwest

Location: Shannon Airport

Current Time: Aug 31, 2015 at 5:00:48 PM

Latest Report: Aug 31, 2015 at 4:30 PM


Visibility: N/A

Pressure: 30.12 "Hg

Humidity: 82%

Dew point: 52 °F

Location of GalwayLocation

Historic Weather in Galway — Graph

°F

Galway temperature yesterday

Maximum temperature yesterday: 64 °F (at 3:00 PM)
Minimum temperature yesterday: 55 °F (at 12:00 AM)
Average temperature yesterday: 58 °F

Past Weeks' High & Low Weather Summary

 TemperatureHumidityPressure
High72 °F (Aug 20, 2:30 PM)100% (Aug 16, 6:30 PM)30.12 "Hg (Aug 16, 6:30 PM)
Low50 °F (Aug 25, 1:30 AM)55% (Aug 24, 2:30 PM)29.33 "Hg (Aug 26, 4:00 AM)
Average59 °F83%29.80 "Hg
* Reported Aug 16 4:00 PM — Aug 31 4:00 PM, Galway, Weather by CustomWeather, © 2015

Note: Actual official high and low records may vary slightly from our data, if they occured in-between our weather recording intervals... More about our weather records

Advertising

Galway weather history for previous 24 hours

 ConditionsComfort  
Time TempWeatherWind HumidityBarometerVisibility
4:00 PM
Mon, Aug 31
63 °FScattered clouds.1 mph68%30.12 "HgN/A
3:30 PM61 °FScattered clouds.3 mph72%30.12 "HgN/A
3:00 PM63 °FSprinkles. Partly sunny.10 mph73%30.12 "HgN/A
2:30 PM63 °FScattered clouds.7 mph68%30.12 "HgN/A
2:00 PM61 °FScattered clouds.8 mph68%30.12 "HgN/A
1:30 PM61 °FScattered clouds.9 mph72%30.12 "HgN/A
1:00 PM61 °FBroken clouds.9 mph72%30.09 "HgN/A
12:30 PM61 °FPartly sunny.6 mph72%30.09 "HgN/A
12:00 PM61 °FPartly sunny.6 mph72%30.09 "HgN/A
11:30 AM61 °FBroken clouds.8 mph77%30.09 "HgN/A
11:00 AM59 °FBroken clouds.7 mph77%30.09 "HgN/A
10:30 AM59 °FPartly sunny.6 mph77%30.09 "HgN/A
10:00 AM57 °FBroken clouds.3 mph82%30.09 "HgN/A
9:30 AM57 °FPartly sunny.3 mph82%30.09 "HgN/A
9:00 AM55 °FPartly sunny.2 mph94%30.09 "HgN/A
8:30 AM54 °FPartly sunny.No wind94%30.09 "HgN/A
8:00 AM52 °FPartly sunny.1 mph100%30.09 "HgN/A
7:30 AM52 °FPartly cloudy.1 mph94%30.09 "HgN/A
7:00 AM52 °FFog.5 mph94%30.09 "HgN/A
6:30 AM50 °FFog.5 mph100%30.09 "HgN/A
6:00 AM52 °FPassing clouds.3 mph94%30.09 "HgN/A
5:30 AM52 °FClear.5 mph94%30.09 "Hg10 mi
5:00 AM52 °FClear.1 mph94%30.09 "Hg10 mi
4:30 AM54 °FPassing clouds.2 mph94%30.09 "HgN/A
4:00 AM54 °FPassing clouds.No wind94%30.09 "HgN/A
3:30 AM54 °FPassing clouds.2 mph94%30.12 "HgN/A
3:00 AM54 °FPassing clouds.No wind94%30.12 "HgN/A
2:30 AM54 °FClear.1 mph94%30.12 "Hg10 mi
2:00 AM54 °FClear.No wind94%30.12 "Hg10 mi
1:30 AM54 °FClear.No wind94%30.12 "Hg10 mi
1:00 AM55 °FClear.No wind88%30.12 "Hg10 mi
12:30 AM55 °FClear.1 mph88%30.12 "Hg10 mi
12:00 AM55 °FClear.2 mph88%30.12 "Hg10 mi
11:30 PM
Sun, Aug 30
55 °FClear.3 mph88%30.12 "Hg10 mi
11:00 PM55 °FClear.5 mph88%30.12 "Hg10 mi
10:30 PM57 °FPassing clouds.3 mph82%30.12 "HgN/A
10:00 PM57 °FPassing clouds.3 mph82%30.12 "HgN/A
9:30 PM57 °FPassing clouds.2 mph82%30.12 "HgN/A
8:30 PM57 °FPartly sunny.3 mph77%30.12 "HgN/A
8:00 PM59 °FPartly sunny.6 mph72%30.09 "HgN/A
7:30 PM59 °FPartly sunny.6 mph72%30.09 "HgN/A
7:00 PM59 °FPartly sunny.6 mph72%30.09 "HgN/A
6:30 PM61 °FPartly sunny.8 mph68%30.09 "HgN/A
6:00 PM61 °FPartly sunny.7 mph68%30.09 "HgN/A
5:30 PM63 °FPartly sunny.5 mph59%30.09 "HgN/A
5:00 PM63 °FPartly sunny.6 mph56%30.09 "HgN/A
Weather by CustomWeather, © 2015

See weather overviewHow to use our weather pages